RH
19 19 19 20 20 21 21 22 23 23 21 20 18 16 14 14 13 12 12 11 12 14 14 14 13 11 10 10 10 11 12 13 13 12 11 10 8 8 7 6 6 5 5 5 5 6 6 6 6 6 6 7 7 7 8 8 9 9 10 12 14 12 11 11 11 10 9 9 9 10 10 9 10 12 13 12 13 14 14 15 15 15 15 14 14 12 12 13
20 20 19 19 19 21 22 21 22 23 24 25 24 23 22 20 19 17 16 15 14 14 14 15 15 14 13 12 10 9 10 10 10 9 10 10 10 10 9 8 8 7 6 6 6 6 6 6 6 6 6 6 6 7 7 7 8 8 10 13 12 11 11 10 9 8 8 9 8 9 10 10 10 11 12 12 12 13 14 14 14 14 14 14 14 13 12 13
23 22 21 21 21 23 25 25 24 24 24 25 26 27 27 27 25 23 21 20 18 16 16 15 15 15 14 14 13 12 11 11 10 9 8 8 8 8 8 8 7 7 7 6 6 6 6 6 7 6 6 7 6 7 7 7 8 8 10 12 12 10 10 9 8 8 8 9 8 9 10 11 11 12 12 11 11 13 14 14 14 13 13 14 15 14 13 14
27 26 25 24 24 24 26 27 26 26 26 27 27 28 29 29 29 28 28 27 25 23 21 20 18 16 15 14 13 13 12 13 13 11 11 10 8 8 7 7 6 6 6 6 6 6 6 6 7 6 6 7 7 7 7 8 8 8 8 9 10 10 10 9 9 9 9 10 9 10 11 11 12 13 12 11 12 14 15 14 14 14 14 14 15 16 14 15
28 27 26 26 25 24 24 25 25 25 26 26 27 27 27 28 28 28 28 28 27 26 25 24 23 22 21 19 18 17 16 17 16 13 13 12 10 9 8 7 6 6 6 6 6 6 6 7 7 7 7 7 7 8 8 8 9 9 9 9 9 9 9 9 9 10 10 10 10 10 11 11 12 12 12 12 12 14 14 15 15 15 15 15 15 16 17 17
27 26 26 26 25 25 24 23 22 23 23 24 24 24 24 24 24 25 25 24 24 24 23 22 21 21 21 21 22 22 22 23 22 19 18 17 15 13 12 10 8 7 6 6 7 7 7 7 7 7 8 8 8 9 8 9 9 9 9 9 9 9 9 9 10 10 10 10 10 11 11 11 11 12 12 12 13 14 15 15 15 15 16 16 16 18 18 18
28 27 27 27 26 26 25 24 24 24 24 24 24 24 24 23 23 23 23 22 21 20 19 18 17 17 17 17 18 20 21 21 21 20 20 20 19 19 18 17 15 12 10 9 9 8 7 7 7 8 8 9 9 9 9 9 9 9 10 10 10 10 10 10 10 10 10 10 10 11 11 11 11 12 12 13 14 15 15 16 16 17 17 18 19 19 19 20
30 30 28 28 28 27 26 25 25 25 25 25 25 25 24 24 23 23 23 22 21 21 20 19 19 18 18 17 18 18 18 18 18 19 18 18 18 18 19 19 18 18 16 16 14 12 11 9 9 8 8 9 9 9 10 10 9 10 10 10 10 10 10 10 11 11 11 10 10 11 10 10 11 12 13 14 15 16 16 17 17 18 19 19 20 21 22 23
33 32 30 30 29 28 27 26 25 24 24 24 24 25 25 25 25 26 25 25 25 24 24 24 24 23 22 22 21 20 21 20 20 20 19 18 17 17 18 18 18 18 17 17 17 18 18 16 14 12 11 10 9 10 11 11 11 11 11 11 10 10 10 10 10 10 11 10 10 11 11 11 13 13 14 15 17 17 17 18 19 20 20 21 21 22 23 24
34 33 32 31 29 27 25 24 23 23 23 24 25 26 26 26 27 28 28 28 28 28 28 28 27 27 26 25 23 23 23 22 21 21 19 18 18 17 18 18 18 18 17 17 16 17 19 19 19 18 17 15 13 13 12 11 12 12 11 11 10 10 10 11 11 11 11 11 12 12 12 13 14 15 16 17 18 18 18 19 20 21 22 22 23 24 24 25
34 33 32 29 26 24 23 23 22 23 25 26 27 27 27 27 27 27 27 27 27 28 28 29 28 27 27 25 23 23 22 21 21 19 18 18 18 18 18 17 17 17 17 17 17 16 16 18 19 20 20 19 17 17 15 14 14 12 11 11 10 11 11 11 11 12 12 12 13 13 13 14 16 17 18 18 19 18 19 20 21 22 23 25 26 27 28 29
32 30 28 25 23 22 23 25 25 26 28 28 28 27 28 28 27 26 25 25 25 26 27 27 26 25 24 23 23 23 22 22 21 20 20 19 19 19 19 18 17 16 15 16 18 17 16 16 17 19 20 19 18 18 17 16 14 12 12 12 11 11 12 13 12 13 13 13 14 13 16 18 18 19 19 19 19 19 20 22 23 25 27 29 31 32 33 34
28 26 25 23 22 24 26 28 29 30 30 30 29 29 29 29 27 25 24 24 24 23 23 23 22 22 23 23 24 24 23 23 23 22 21 20 20 20 19 19 18 16 15 16 18 18 18 17 17 19 19 19 19 18 17 16 14 14 13 12 13 13 16 17 14 14 14 14 15 15 18 21 20 20 21 21 21 22 24 26 28 31 33 35 35 35 35 34
25 24 24 25 25 27 29 31 32 32 32 30 29 28 28 27 25 23 25 25 23 22 22 23 23 25 27 27 27 28 27 26 26 25 24 23 22 20 19 18 17 17 17 17 18 18 18 18 18 19 19 19 20 19 18 17 15 15 15 16 16 15 18 19 16 15 15 16 17 16 21 23 23 24 24 25 25 27 29 31 33 34 35 36 36 35 35 34
25 24 24 27 29 31 33 34 34 33 33 31 28 27 24 22 21 20 22 22 22 22 23 24 25 27 28 28 29 29 28 27 27 26 27 26 25 24 20 17 16 16 16 17 18 18 18 18 19 20 20 20 20 20 19 19 18 17 17 19 19 17 18 20 18 18 18 18 18 20 26 28 28 30 30 30 31 32 33 34 35 36 37 38 38 37 36 36
21 22 24 28 31 35 36 35 33 33 33 32 29 25 22 20 19 19 19 19 19 20 23 24 25 26 27 27 26 27 28 28 28 28 28 28 29 29 27 24 22 20 19 19 19 19 19 20 21 21 20 20 20 20 20 20 22 24 22 20 21 22 21 22 24 25 23 24 25 27 32 34 33 33 33 32 33 33 34 35 36 37 37 37 37 37 37 37
18 21 24 28 31 33 32 31 31 32 31 28 25 23 21 21 21 20 21 20 20 21 23 24 23 24 24 23 23 23 24 24 24 25 26 26 28 29 31 32 33 32 31 30 29 27 26 26 25 25 26 26 25 26 27 28 29 30 30 28 29 31 29 29 32 31 28 28 30 31 32 33 32 30 30 31 31 32 33 34 35 35 36 36 36 37 38 39
22 24 26 29 30 29 28 29 29 28 27 25 23 23 24 25 24 24 23 22 23 23 23 21 20 22 22 20 21 21 21 20 20 21 21 22 24 26 28 30 32 34 35 36 35 34 33 32 32 34 37 35 32 33 35 36 35 34 34 33 31 31 30 31 32 30 27 27 28 29 29 29 28 28 28 30 31 33 34 34 35 35 36 37 38 39 40 42
25 26 28 28 28 28 28 26 25 24 23 23 23 23 25 25 24 23 21 21 22 21 21 19 18 20 20 20 20 19 19 20 20 21 21 21 22 23 24 25 26 27 27 29 30 30 31 31 32 35 35 33 31 31 31 32 31 30 30 29 29 29 28 29 28 26 26 27 27 27 28 29 28 28 29 31 33 34 35 35 36 37 38 39 41 42 43 45
28 30 30 30 29 28 25 23 21 21 22 22 22 23 23 21 20 19 18 18 18 19 18 18 18 18 18 18 18 16 17 18 18 18 18 19 20 21 22 22 23 24 23 26 26 25 28 29 30 30 28 27 26 26 26 26 26 26 27 27 28 29 27 25 24 24 25 26 28 28 29 30 31 31 32 32 34 35 36 37 39 40 41 43 44 45 47 48
33 33 31 29 26 24 23 22 22 21 21 20 19 19 18 16 15 16 17 18 17 17 17 16 16 16 16 16 15 15 16 16 16 16 15 16 17 17 18 18 19 21 21 23 24 23 24 25 26 25 23 23 23 23 23 23 23 24 25 25 25 25 24 24 24 24 23 25 30 31 32 33 33 34 35 36 37 38 39 41 42 43 44 45 46 47 49 51
34 31 28 26 24 24 24 23 23 22 20 17 15 14 13 12 14 15 18 20 19 17 17 16 16 17 17 17 16 16 16 17 16 15 14 15 15 15 16 15 16 17 17 19 22 22 21 21 21 20 20 21 21 20 20 22 24 23 22 23 24 24 23 25 27 25 23 26 32 34 33 36 36 37 38 40 42 42 42 43 43 44 45 46 48 50 51 54
30 27 26 26 26 26 25 24 23 20 17 16 14 13 13 14 15 17 20 20 18 19 18 17 17 17 18 18 18 17 18 18 17 15 14 14 14 15 16 15 15 16 15 17 20 21 21 21 20 20 21 21 21 20 19 22 25 23 22 23 24 24 24 27 28 25 25 29 34 36 37 39 40 41 41 42 43 42 42 43 45 46 47 47 49 51 52 54
27 26 26 26 26 27 26 25 21 17 17 17 16 15 15 17 18 20 21 19 18 18 19 18 18 18 19 18 18 19 19 18 16 15 14 14 15 15 15 16 16 16 17 18 18 19 21 21 21 21 21 21 21 21 21 22 24 25 25 24 24 25 25 28 27 26 29 34 35 36 39 44 45 41 40 40 39 40 42 44 46 47 47 47 47 48 50 52
27 27 26 25 26 26 25 23 19 17 19 18 17 16 15 17 19 20 21 21 19 18 19 19 19 19 19 18 17 18 17 15 14 15 14 14 15 15 16 17 17 17 19 19 18 20 21 21 22 22 21 21 21 22 23 24 24 27 29 26 25 26 26 27 27 27 31 36 36 33 35 43 45 42 41 40 39 42 43 43 43 43 43 42 42 44 47 50
27 26 25 24 25 23 22 23 20 19 20 19 17 15 14 16 18 20 21 23 21 19 20 20 19 18 17 15 15 15 15 15 14 15 15 15 15 16 17 17 17 18 20 20 20 22 23 22 22 22 22 22 22 23 24 25 25 27 27 25 25 26 26 27 26 27 28 30 33 30 28 33 43 47 44 40 39 41 41 39 39 39 39 40 42 44 46 49
25 24 23 23 22 21 22 23 21 21 20 18 15 13 14 15 17 19 20 22 21 20 20 18 17 16 14 14 14 14 16 17 15 15 16 16 16 18 19 18 19 20 22 24 23 25 25 24 23 23 23 22 23 24 24 25 27 26 23 23 24 23 25 24 23 26 25 26 31 29 20 22 39 48 42 38 39 39 38 38 38 39 40 42 43 45 47 49
21 20 22 23 23 22 24 24 22 21 19 16 14 13 13 14 17 19 20 21 20 17 18 17 14 14 14 15 15 15 17 17 17 17 19 18 18 19 19 20 22 21 23 24 25 26 26 25 25 24 22 22 24 24 24 25 25 23 19 20 23 22 24 23 21 23 20 24 32 26 14 17 34 43 39 39 43 41 39 38 38 40 41 43 45 46 48 51
17 21 24 25 24 24 25 24 21 19 16 14 12 11 12 13 15 17 17 18 17 16 17 16 14 15 16 17 16 17 18 19 19 20 20 20 19 19 19 21 21 21 21 21 23 26 25 25 26 24 21 22 24 22 23 24 21 18 16 19 23 23 22 20 20 19 18 26 31 23 15 18 31 40 38 39 43 43 41 38 38 41 42 44 47 49 51 54
20 24 25 24 23 23 21 19 17 15 11 10 9 9 11 11 13 14 13 15 16 17 17 16 16 18 18 18 18 19 20 20 21 21 21 20 19 19 19 20 20 19 21 20 22 25 25 25 26 24 23 24 25 24 24 23 18 16 16 18 22 22 19 19 19 16 16 26 28 20 17 18 28 39 38 35 38 38 38 37 38 40 42 45 48 52 55 56
24 24 22 21 20 18 16 15 13 10 7 7 7 8 10 11 12 13 13 15 17 18 18 18 19 20 20 20 19 20 20 20 20 20 19 18 18 18 18 19 19 20 21 21 23 25 24 25 24 24 26 26 26 26 25 23 16 13 14 14 15 17 15 15 18 15 14 21 22 18 17 18 27 38 33 30 32 32 35 38 38 39 41 46 50 53 56 58
20 19 18 17 15 14 12 11 9 7 6 7 7 8 11 12 13 15 15 16 18 19 19 20 20 20 20 20 19 19 19 18 18 18 18 17 16 18 18 18 20 22 21 20 23 26 26 27 25 26 26 23 21 19 19 20 13 7 11 14 12 12 11 13 17 16 14 18 17 16 18 19 26 33 29 28 29 29 34 37 38 40 42 45 50 53 56 59
16 16 15 15 13 11 9 7 7 7 6 7 7 9 12 13 15 18 17 17 19 20 21 22 21 20 19 18 18 18 18 18 17 17 17 16 16 18 19 19 21 24 23 21 23 26 28 28 25 23 23 20 18 13 12 17 15 10 14 18 16 13 16 19 19 17 17 17 14 16 21 23 26 31 28 26 28 29 33 37 38 40 41 44 49 52 54 56
16 15 14 12 10 8 7 6 7 7 7 8 9 11 14 15 17 19 18 17 19 20 21 22 20 19 17 16 17 17 17 18 17 17 17 17 18 19 20 22 24 25 25 25 23 23 25 25 21 20 21 20 19 15 13 18 20 17 15 17 19 20 22 21 18 19 20 16 18 24 26 23 25 28 28 27 29 32 34 37 40 43 44 47 50 51 53 54
14 13 11 9 8 7 6 7 7 7 9 11 12 12 15 16 17 18 19 20 20 20 21 21 19 17 16 15 16 17 18 18 17 18 19 20 21 23 23 24 25 25 26 26 24 23 24 23 19 18 19 19 18 15 14 15 18 16 12 13 18 20 23 23 19 21 23 24 30 33 27 24 27 29 30 31 32 34 36 39 43 46 48 50 53 54 54 56
12 11 9 8 7 7 7 8 8 8 11 13 14 14 16 18 17 17 20 22 21 20 20 19 16 15 15 15 15 17 19 19 18 19 22 23 25 26 26 25 25 24 24 24 23 23 24 24 19 15 17 19 16 14 12 11 12 14 12 12 15 19 23 25 21 21 26 29 27 23 22 27 33 34 33 33 33 33 34 36 40 46 49 50 52 54 54 56
10 9 8 8 8 8 8 9 9 10 12 14 15 16 16 18 20 20 22 22 22 20 17 16 16 15 15 16 16 17 20 20 19 21 23 24 27 27 26 25 24 23 23 24 22 22 24 26 21 15 17 18 16 15 14 11 9 12 13 11 15 22 24 24 25 24 24 26 20 16 20 25 29 36 38 36 35 36 37 40 44 47 48 48 50 52 52 53
7 8 9 9 9 9 9 10 10 12 13 14 16 17 17 18 20 22 23 22 22 19 14 14 16 17 15 16 17 19 21 21 20 22 24 25 28 28 26 25 24 21 22 22 20 18 21 25 23 16 14 16 17 17 17 16 11 10 13 12 14 23 22 21 27 28 26 30 26 19 21 25 29 37 41 39 39 40 44 47 47 46 46 48 49 51 52 53
8 10 10 9 10 10 10 11 11 12 13 14 16 16 17 19 20 22 23 23 21 17 14 15 16 17 16 18 19 20 22 22 21 22 24 25 28 28 26 25 24 21 20 19 17 15 15 20 21 15 13 16 17 17 19 20 16 12 15 14 14 21 23 22 26 27 26 30 29 25 23 25 31 35 36 38 38 39 43 44 44 45 47 48 49 50 52 53
9 11 11 10 10 11 11 10 11 13 14 15 15 15 17 19 19 20 20 21 21 16 15 16 16 17 18 20 21 22 22 22 21 21 22 23 27 29 26 24 24 21 19 17 16 16 15 16 17 15 15 19 20 17 17 18 18 16 17 19 20 23 25 27 29 29 28 27 29 31 26 21 28 34 33 36 38 40 42 43 44 48 49 49 49 49 50 50
11 12 11 11 11 11 11 11 12 13 14 14 14 16 19 19 19 19 18 20 21 18 17 18 18 18 20 21 22 22 22 21 21 21 22 23 25 28 26 24 24 21 18 16 15 17 16 14 16 16 15 18 18 16 16 17 18 18 19 22 25 28 28 28 29 32 34 32 31 34 30 25 30 34 34 38 40 41 42 44 47 48 47 47 46 47 49 52
12 13 12 12 11 11 10 12 14 13 12 14 16 18 20 19 17 17 18 19 20 19 18 19 20 21 22 22 22 22 21 21 21 21 24 24 23 24 25 25 24 21 18 16 15 18 16 12 15 17 14 14 15 15 18 20 19 20 19 18 23 32 34 26 23 28 34 34 34 39 38 35 35 36 38 41 40 42 46 48 49 47 44 44 44 47 51 54
13 13 12 11 11 11 11 12 14 13 13 16 18 18 19 18 16 16 18 19 19 19 19 20 21 22 23 23 22 22 22 22 23 22 23 24 23 24 24 24 23 19 17 16 15 18 17 11 14 17 14 16 19 19 21 23 24 28 27 20 21 32 36 29 27 33 38 35 35 39 38 36 38 40 39 41 44 48 50 49 48 46 44 45 47 50 53 56
13 13 12 10 10 10 11 12 12 13 14 16 16 16 17 17 17 17 18 19 20 20 19 20 22 23 23 23 22 22 22 23 23 23 23 23 24 25 23 21 20 16 17 18 17 19 16 10 14 16 13 16 20 21 23 25 27 31 31 25 22 28 37 39 37 40 42 37 37 40 35 31 37 41 41 45 51 53 52 52 53 51 49 50 52 55 58 59
12 11 11 10 9 9 11 13 13 13 13 14 14 15 15 17 18 18 20 20 21 21 20 20 23 22 22 23 22 22 22 22 23 23 23 23 23 24 22 19 19 17 18 20 18 17 14 9 11 14 12 13 16 19 21 22 23 25 26 28 26 28 37 41 38 38 39 37 39 42 36 29 32 39 43 47 52 54 53 52 50 49 50 53 57 58 58 59
12 12 11 10 9 9 11 13 12 12 12 12 13 14 14 15 17 18 20 20 20 21 21 21 22 22 21 22 22 22 22 22 22 23 24 23 22 21 20 18 19 18 19 19 16 14 13 10 10 12 13 13 15 18 20 21 20 21 25 29 30 30 35 39 41 39 36 37 40 38 36 36 35 38 43 47 50 51 50 46 44 46 50 54 56 56 56 60
11 13 13 12 11 10 11 13 13 13 12 12 13 14 15 15 16 18 20 21 20 20 21 21 21 21 21 22 22 21 22 23 22 24 25 24 21 19 18 18 18 17 17 17 15 14 13 13 14 16 15 14 13 15 18 20 21 20 23 27 27 30 36 40 41 36 35 42 41 30 33 41 39 40 48 52 51 49 46 44 45 49 51 52 53 54 58 62
11 12 13 13 12 12 11 13 15 15 14 13 13 15 15 15 16 18 19 20 20 20 21 21 21 22 22 23 22 21 22 23 23 26 27 23 19 17 16 18 17 15 15 14 14 15 13 14 19 22 19 16 15 16 17 20 21 21 23 25 25 28 35 38 39 37 40 47 40 29 36 44 43 45 52 53 51 48 44 44 49 53 52 51 52 54 58 61
11 11 11 11 12 13 12 13 15 15 14 14 13 15 16 15 17 19 20 20 19 19 20 20 22 22 22 23 22 21 22 22 24 28 27 25 22 17 15 17 16 15 14 13 14 16 15 16 22 25 22 17 16 17 18 20 21 22 23 23 23 26 30 35 37 37 42 45 38 36 44 46 42 46 53 54 52 47 44 47 52 54 52 50 51 53 55 57
10 11 11 10 11 13 13 13 14 13 12 12 13 15 17 16 17 19 21 20 20 19 20 21 22 23 23 23 22 22 23 23 24 25 24 24 23 18 15 16 16 15 14 14 16 17 15 17 23 23 20 18 17 18 20 21 20 20 21 21 23 26 29 34 36 38 43 45 40 44 52 47 42 48 52 52 50 48 48 51 53 52 52 52 53 53 53 53
9 9 10 10 10 12 12 12 13 12 11 12 13 16 17 17 18 20 20 21 21 20 21 22 23 23 23 23 23 23 25 25 25 23 20 19 20 19 17 17 17 16 15 17 22 20 15 16 19 20 19 18 18 18 17 17 19 22 24 24 24 28 30 33 35 38 42 44 43 50 54 47 44 50 52 48 50 53 55 56 56 54 54 55 55 54 52 50
8 8 9 9 10 11 11 11 12 12 11 13 15 16 17 18 19 20 20 21 23 22 22 23 24 22 21 22 24 26 26 27 27 26 22 19 19 21 21 20 20 19 17 20 23 22 21 17 15 18 20 18 18 16 15 17 22 26 27 24 23 26 28 30 33 36 39 42 46 50 47 43 47 54 54 50 52 57 58 58 58 56 54 54 55 54 51 47